Location: Biharia
(46.4333°N, 22.8000°E)
Time: 03:32:40
(UTC+00:00)

Cosmos 494 Rocket - Pass Details

Date: 30 May 2022
Orbit: 742 x 770 km, 74.1° (Epoch: 05 July)

Event Time Altitude Azimuth Distance (km) Brightness Sun altitude
Rises 21:47:29 0° 339° (NNW) 3,192 8.7 -21.1°
Reaches altitude 10° 21:49:51 10° 340° (NNW) 2,264 7.6 -21.2°
Maximum altitude 21:54:59 79° 67° (ENE) 762 3.9 -21.3°
Enters shadow 21:56:29 47° 146° (SE) 984 4.1 -21.4°
